This demonstration page uses our WeatherBlox Daily Observations layout. Learn more.

Left ArrowRight Arrow

34.74481, -87.66753

Hourly Observations for February 14, 2018

Temp ( °F °C ) Dew Point ( °F °C ) Humidity (%) Winds ( mph kmh ) Pressure ( in mb ) Visibility ( mi km ) Precip ( " mm )
12:07 am 00:07 Cloudy 57 13.9 54 12.2 90 90 S 6 9 30.45 1031 8 13 0.00 0.00
12:53 am 00:53 Cloudy 56 13.3 53 11.7 90 90 S 6 9 30.43 1031 7 11 0.01 0.25
1:53 am 01:53 Cloudy with Light Rain 56 13.3 54 12.2 93 93 Calm 30.43 1031 6 10 0.01 0.25
2:53 am 02:53 Cloudy with Light Rain 56 13.3 54 12.2 93 93 S 6 9 30.42 1030 4 6 0.05 1.27
3:15 am 03:15 Cloudy with Rain 57 13.9 54 12.2 90 90 S 5 7 30.42 1030 3 4 0.05 1.27
3:36 am 03:36 Cloudy with Light Rain 56 13.3 54 12.2 93 93 SSE 10 17 30.42 1030 4 6 0.08 2.03
3:53 am 03:53 Cloudy with Mist and Fog 56 13.3 54 12.2 93 93 SE 8 13 30.40 1029 5 8 0.08 2.03
4:43 am 04:43 Cloudy with Heavy Rain 57 13.9 54 12.2 90 90 S 8 13 30.39 1029 3 4 0.13 3.30
4:53 am 04:53 Cloudy with Rain 57 13.9 54 12.2 90 90 S 10 17 30.39 1029 3 5 0.16 4.06
5:53 am 05:53 Cloudy with Rain 57 13.9 54 12.2 90 90 SSE 9 15 30.39 1029 4 6 0.18 4.57
6:34 am 06:34 Cloudy 57 13.9 54 12.2 90 90 S 7 11 30.39 1029 10 16 0.06 1.52
6:41 am 06:41 Cloudy with Light Rain 57 13.9 54 12.2 90 90 S 5 7 30.39 1029 7 11 0.06 1.52
6:53 am 06:53 Cloudy with Light Rain 57 13.9 54 12.2 90 90 S 8 13 30.39 1029 7 11 0.06 1.52
7:27 am 07:27 Cloudy with Heavy Rain 57 13.9 54 12.2 90 90 S 10 17 30.39 1029 3 4 0.07 1.78
7:39 am 07:39 Cloudy with Light Rain 57 13.9 54 12.2 90 90 SSE 9 15 30.39 1029 4 6 0.08 2.03
7:53 am 07:53 Cloudy with Light Rain 57 13.9 54 12.2 90 90 S 9 15 30.39 1029 6 10 0.09 2.29
8:14 am 08:14 Cloudy 57 13.9 54 12.2 90 90 S 9 15 30.39 1029 7 11 0.00 0.03
8:53 am 08:53 Cloudy 58 14.4 54 12.2 87 87 S 8 13 30.40 1029 10 16 0.00 0.03
9:53 am 09:53 Cloudy 58 14.4 55 12.8 90 90 S 10 17 30.38 1029 9 14 0.00 0.03
10:53 am 10:53 Cloudy 59 15 55 12.8 87 87 S 9 15 30.37 1029 9 14 0.00 0.00
11:53 am 11:53 Cloudy 60 15.6 56 13.3 86 86 SSW 8 13 30.34 1027 10 16 0.00 0.00
12:53 pm 12:53 Cloudy with Light Rain 60 15.6 57 13.9 90 90 S 9 15 30.31 1026 7 11 0.01 0.25
1:40 pm 13:40 Cloudy with Rain 60 15.6 57 13.9 90 90 S 8 13 30.27 1025 2 3 0.07 1.78
1:53 pm 13:53 Cloudy with Light Rain 60 15.6 57 13.9 90 90 SSE 8 13 30.27 1025 5 8 0.08 2.03
2:15 pm 14:15 Cloudy with Heavy Rain 60 15.6 57 13.9 90 90 SSE 10 17 30.27 1025 2 3 0.06 1.52
2:28 pm 14:28 Cloudy with Rain 60 15.6 57 13.9 90 90 S 8 13 30.27 1025 3 5 0.09 2.29
2:35 pm 14:35 Cloudy with Heavy Rain 60 15.6 57 13.9 90 90 SSW 3 6 30.27 1025 2 3 0.12 3.05
2:42 pm 14:42 Cloudy with Heavy Rain 60 15.6 57 13.9 90 90 SSW 6 9 30.27 1025 1 1 0.21 5.33
2:53 pm 14:53 Cloudy with Light Rain 60 15.6 57 13.9 90 90 S 7 11 30.25 1025 4 6 0.23 5.84
3:53 pm 15:53 Cloudy with Light Rain 62 16.7 59 15 90 90 S 8 13 30.23 1024 5 8 0.01 0.25
4:53 pm 16:53 Cloudy 62 16.7 59 15 90 90 S 8 13 30.23 1024 9 14 0.00 0.03
5:53 pm 17:53 Mostly Cloudy with Rain 62 16.7 59 15 90 90 S 10 17 30.22 1023 4 6 0.07 1.78
5:59 pm 17:59 Cloudy with Heavy Rain 62 16.7 59 15 90 90 S 10 17 30.21 1023 2 3 0.08 2.03
6:03 pm 18:03 Cloudy with Light Rain 62 16.7 59 15 90 90 S 10 17 30.21 1023 2 3 0.08 2.03
6:11 pm 18:11 Cloudy with Light Rain 62 16.7 59 15 90 90 S 13 20 30.21 1023 10 16 0.08 2.03
6:39 pm 18:39 Cloudy with Light Rain 62 16.7 59 15 90 90 S 10 17 30.21 1023 9 14 0.10 2.54
6:53 pm 18:53 Cloudy with Light Rain 63 17.2 59 15 87 87 S 13 20 30.21 1023 7 11 0.12 3.05
7:21 pm 19:21 Cloudy 63 17.2 59 15 87 87 SSW 9 15 30.21 1023 10 16 0.00 0.03
7:46 pm 19:46 Cloudy 63 17.2 60 15.6 90 90 SW 8 13 30.24 1024 10 16 0.00 0.03
7:53 pm 19:53 Cloudy 63 17.2 60 15.6 90 90 SW 8 13 30.22 1023 10 16 0.00 0.03
8:39 pm 20:39 Cloudy with Light Rain 63 17.2 60 15.6 90 90 S 8 13 30.21 1023 3 5 0.03 0.76
8:53 pm 20:53 Cloudy 65 18.3 60 15.6 84 84 S 8 13 30.21 1023 10 16 0.03 0.76
9:53 pm 21:53 Cloudy 64 17.8 60 15.6 87 87 SSW 12 19 30.20 1023 10 16 0.01 0.25
10:53 pm 22:53 Cloudy 65 18.3 61 16.1 87 87 SSW 14 22 30.19 1022 10 16 0.00 0.00
11:02 pm 23:02 Cloudy 65 18.3 61 16.1 87 87 SSW 14 22 30.18 1022 10 16 0.00 0.00
11:20 pm 23:20 Cloudy 65 18.3 61 16.1 87 87 SSW 12 19 30.18 1022 10 16 0.00 0.00
11:53 pm 23:53 Cloudy 65 18.3 61 16.1 87 87 SSW 10 17 30.18 1022 9 14 0.00 0.00

Powered by AerisWeather